[[{"header":{"parameterUnit":"m.s-1","parameterCategory":1,"la1":30.2991,"la2":30.254,"lo1":-89.0895,"lo2":-89.0444,"dy":0.0017,"dx":0.0017,"nx":28,"ny":28,"refTime":"2025-12-12T09:00:00:Z","depth":0,"parameterNumber":2,"parameterNumberName":"U-component_of_WINDS"},"data":[0,0,0,0,0,0,0,0,0,0,0,0,0,0,0,0,0,0,0,0,0,0,0,0,0,0,0,0,0,0,0,0,0,0,0,0,0,0,0,0,0,0,0,0,0,0,0,0,0,0,0,0,0,0,0,0,0,0,-2.0462,-2.0463,0,-2.0493,-2.0493,-2.0494,-2.0465,-2.0464,-2.0462,-2.0461,-2.0495,-2.0497,-2.0499,0,0,0,0,0,0,0,0,0,0,0,0,0,-2.0379,-2.0381,-2.0462,-2.0463,-2.0463,-2.0493,-2.0493,-2.0494,-2.0465,-2.0463,-2.0462,-2.0461,-2.0494,-2.0496,-2.0499,0,0,0,0,0,0,0,0,0,0,0,0,0,-2.0413,-2.0381,-2.0462,-2.0452,-2.0452,-2.0493,-2.0493,-2.0494,-2.0465,-2.0463,-2.0462,-2.046,-2.0493,-2.0496,-2.0499,-2.0552,0,0,-2.0508,-2.0509,0,0,0,0,0,0,0,0,-2.0411,-2.0416,-2.0453,-2.0453,-2.0452,-2.0473,-2.0476,-2.0513,-2.0466,-2.046,-2.0461,-2.0459,-2.0489,-2.0492,-2.0502,-2.0554,-2.0555,-2.0508,-2.051,-2.0511,-2.0512,0,0,0,0,0,0,0,-2.0409,-2.0415,-2.0474,-2.0454,-2.0453,-2.0446,-2.0449,-2.0483,-2.0484,-2.046,-2.0458,-2.0462,-2.0489,-2.0499,-2.0503,-2.0556,-2.0508,-2.0511,-2.0513,-2.0514,-2.065,-2.0652,0,0,0,0,0,0,-2.0408,-2.0413,-2.0473,-2.0475,-2.0427,-2.0449,-2.0452,-2.0468,-2.0484,-2.0484,-2.0464,-2.0461,-2.0495,-2.0499,-2.0504,-2.0565,-2.0511,-2.0514,-2.0516,-2.0649,-2.0651,-2.0653,0,0,0,0,0,0,-2.0406,-2.0413,-2.0472,-2.0444,-2.0451,-2.0452,-2.047,-2.047,-2.048,-2.0486,-2.0486,-2.0474,-2.0494,-2.0499,-2.054,-2.0566,-2.0516,-2.0518,-2.0646,-2.0649,-2.0652,-2.0689,0,0,0,0,0,0,-2.0404,-2.0413,-2.0433,-2.0444,-2.0452,-2.0508,-2.0472,-2.0472,-2.0485,-2.0482,-2.0496,-2.0497,-2.0493,-2.0535,-2.0543,-2.0569,-2.0521,-2.0644,-2.0648,-2.0651,-2.0686,-2.0693,-2.0699,0,0,0,0,0,-2.0401,-2.0443,-2.0434,-2.0442,-2.0477,-2.0509,-2.0514,-2.0508,-2.0488,-2.0508,-2.0511,-2.0496,-2.0562,-2.054,-2.0548,-2.0575,-2.0642,-2.0647,-2.0651,-2.0683,-2.0692,-2.0699,0,0,0,0,0,0,-2.0437,-2.0445,-2.0435,-2.0482,-2.0495,-2.0504,-2.053,-2.0518,-2.0537,-2.0533,-2.0526,-2.0529,-2.0571,-2.0577,-2.0553,-2.0626,-2.0599,-2.0605,-2.062,-2.0629,-2.0636,-2.0633,-2.0523,0,0,0,0,0,-2.045,-2.0474,-2.0481,-2.0522,-2.0529,-2.0528,-2.0542,-2.0536,-2.0549,-2.0555,-2.0561,-2.0575,-2.0598,-2.0614,-2.0637,-2.0687,-2.0688,-2.0709,-2.0716,-2.0722,-2.0727,-2.0751,-2.076,-2.0666,-2.0666,-2.0666,0,0,-2.0478,-2.0485,-2.0502,-2.0529,-2.0538,-2.0564,-2.0533,-2.0562,-2.0581,-2.056,-2.0597,-2.0602,-2.0617,-2.0662,-2.0682,-2.0669,-2.0753,-2.0727,-2.0731,-2.0733,-2.0757,-2.0765,-2.0773,-2.0669,-2.0669,-2.0668,0,0,-2.0541,-2.055,-2.0584,-2.0594,-2.0607,-2.0606,-2.0615,-2.0625,-2.0627,-2.0665,-2.0649,-2.0671,-2.0713,-2.0723,-2.0734,-2.0799,-2.0786,-2.0807,-2.0842,-2.0866,-2.0873,-2.088,-2.0901,-2.0909,-2.0812,-2.0812,-2.0812,0,-2.0574,-2.0612,-2.0603,-2.0633,-2.0645,-2.0625,-2.0659,-2.0669,-2.069,-2.0699,-2.0683,-2.0733,-2.0742,-2.0788,-2.0803,-2.0813,-2.0822,-2.0805,-2.0873,-2.0879,-2.0885,-2.0906,-2.0914,-2.0814,-2.0814,-2.0814,-2.0814,0,-2.065,-2.0677,-2.0703,-2.0721,-2.0736,-2.0768,-2.0764,-2.0781,-2.0773,-2.0774,-2.0811,-2.0821,-2.0844,-2.0854,-2.0848,-2.0899,-2.089,-2.0874,-2.0846,-2.0897,-2.0915,-2.0923,-2.0818,-2.0817,-2.0816,-2.0816,0,0,-2.0738,-2.075,-2.076,-2.0767,-2.078,-2.08,-2.083,-2.0851,-2.0865,-2.088,-2.0904,-2.0938,-2.0923,-2.0935,-2.093,-2.0951,-2.1,-2.0932,-2.0933,-2.0943,-2.1054,-2.1065,-2.1074,-2.0991,-2.0993,-2.0994,-2.1052,0,-2.08,-2.0851,-2.0844,-2.0894,-2.0917,-2.0898,-2.0924,-2.0935,-2.0936,-2.0956,-2.0957,-2.0981,-2.096,-2.0967,-2.0987,-2.099,-2.1022,-2.0986,-2.1013,-2.1014,-2.1008,-2.1084,-2.1096,-2.1151,-2.106,-2.1061,-2.1062,0,-2.088,-2.0895,-2.0946,-2.0954,-2.0963,-2.0987,-2.1004,-2.1024,-2.1035,-2.1034,-2.1047,-2.1037,-2.1067,-2.1039,-2.1079,-2.1055,-2.1066,-2.1069,-2.1071,-2.1072,-2.104,-2.1086,-2.1168,-2.1176,-2.1074,-2.1073,-2.1072,0,-2.0935,-2.097,-2.1004,-2.1011,-2.1021,-2.1038,-2.1043,-2.1053,-2.1065,-2.1081,-2.1088,-2.1108,-2.1118,-2.1133,-2.1129,-2.1109,-2.117,-2.1142,-2.1169,-2.1169,-2.1182,-2.1181,-2.1265,-2.1191,-2.1191,-2.1191,-2.1191,0,-2.1005,-2.1036,-2.1029,-2.105,-2.1084,-2.1076,-2.111,-2.1113,-2.1122,-2.1143,-2.1129,-2.1149,-2.1142,-2.1162,-2.1159,-2.1191,-2.1197,-2.1196,-2.1195,-2.1197,-2.1197,-2.1203,-2.1198,-2.1193,-2.1193,-2.1192,-2.1192,0,-2.1073,-2.1069,-2.1105,-2.1111,-2.1113,-2.1138,-2.1143,-2.1162,-2.1162,-2.1189,-2.1194,-2.1194,-2.1216,-2.1213,-2.1239,-2.1236,-2.1276,-2.1271,-2.1272,-2.127,-2.1297,-2.1293,-2.1387,-2.1398,-2.1319,-2.132,-2.132,0,-2.1116,-2.114,-2.1147,-2.116,-2.1165,-2.1186,-2.1198,-2.119,-2.1203,-2.1217,-2.1235,-2.1255,-2.1271,-2.1308,-2.131,-2.1329,-2.1323,-2.1354,-2.1326,-2.1326,-2.1321,-2.1319,-2.132,-2.136,-2.136,-2.1361,-2.1362,0,-2.1193,-2.119,-2.1207,-2.1223,-2.1237,-2.125,-2.1262,-2.1273,-2.1266,-2.1282,-2.1303,-2.1316,-2.134,-2.1361,-2.1378,-2.1383,-2.1371,-2.1371,-2.1378,-2.1379,-2.1378,-2.1377,-2.1285,-2.1368,-2.1368,-2.1367,-2.1367,-2.1367,-2.1249,-2.1268,-2.1276,-2.1295,-2.1302,-2.1313,-2.1331,-2.1332,-2.1349,-2.1368,-2.1363,-2.1387,-2.1396,-2.1418,-2.1425,-2.1444,-2.1432,-2.1443,-2.1445,-2.1448,-2.145,-2.1376,-2.1447,-2.1447,-2.1447,-2.1447,-2.1447,0,-2.1324,-2.1327,-2.1345,-2.136,-2.1375,-2.1362,-2.1373,-2.1386,-2.1407,-2.1417,-2.1432,-2.1456,-2.1475,-2.1478,-2.1496,-2.1511,-2.1506,-2.1516,-2.1514,-2.1515,-2.146,-2.1451,-2.1519,-2.1519,-2.1519,-2.1519,-2.1519,-2.1519,-2.1364,-2.1395,-2.1392,-2.1426,-2.1429,-2.1452,-2.1459,-2.1469,-2.1476,-2.1503,-2.1518,-2.152,-2.1526,-2.1544,-2.1561,-2.1561,-2.1568,-2.158,-2.1578,-2.1526,-2.1519,-2.1512,-2.1504,-2.1582,-2.1582,-2.1631,-2.1631,-2.1631]},{"header":{"parameterUnit":"m.s-1","parameterCategory":1,"la1":30.2991,"la2":30.254,"lo1":-89.0895,"lo2":-89.0444,"dy":0.0017,"dx":0.0017,"nx":28,"ny":28,"refTime":"2025-12-12T09:00:00:Z","depth":0,"parameterNumber":3,"parameterNumberName":"V-component_of_WINDS"},"data":[0,0,0,0,0,0,0,0,0,0,0,0,0,0,0,0,0,0,0,0,0,0,0,0,0,0,0,0,0,0,0,0,0,0,0,0,0,0,0,0,0,0,0,0,0,0,0,0,0,0,0,0,0,0,0,0,0,0,0.0664,0.0665,0,0.0747,0.0748,0.0749,0.0774,0.0774,0.0774,0.0773,0.0855,0.0858,0.086,0,0,0,0,0,0,0,0,0,0,0,0,0,0.0529,0.0531,0.0664,0.0665,0.0666,0.0747,0.0748,0.0749,0.0774,0.0774,0.0773,0.0773,0.0854,0.0857,0.086,0,0,0,0,0,0,0,0,0,0,0,0,0,0.0597,0.0532,0.0664,0.0689,0.0692,0.0746,0.0748,0.0749,0.0775,0.0774,0.0773,0.0773,0.0853,0.0857,0.0861,0.0896,0,0,0.0872,0.0874,0,0,0,0,0,0,0,0,0.0593,0.0602,0.0684,0.0687,0.0691,0.075,0.073,0.0798,0.0775,0.0743,0.0773,0.0773,0.082,0.0827,0.0844,0.09,0.0903,0.0873,0.0875,0.0877,0.0878,0,0,0,0,0,0,0,0.0588,0.0598,0.0697,0.0685,0.0689,0.0696,0.0705,0.0743,0.0784,0.0746,0.0748,0.0757,0.0822,0.084,0.0846,0.0904,0.0873,0.0876,0.0878,0.088,0.0997,0.0998,0,0,0,0,0,0,0.0579,0.0594,0.0694,0.0699,0.0639,0.0699,0.0709,0.0731,0.0784,0.0791,0.0758,0.0758,0.0834,0.0841,0.0849,0.0895,0.0877,0.088,0.0882,0.0996,0.0997,0.0998,0,0,0,0,0,0,0.0576,0.0588,0.0691,0.0647,0.0661,0.0702,0.0727,0.0733,0.0751,0.0793,0.08,0.0768,0.0833,0.0843,0.0885,0.0898,0.0882,0.0885,0.0995,0.0996,0.0997,0.0987,0,0,0,0,0,0,0.0572,0.0587,0.06,0.0648,0.0663,0.0725,0.0727,0.0735,0.0758,0.0759,0.0805,0.0812,0.0834,0.0879,0.0889,0.0903,0.0888,0.0994,0.0996,0.0997,0.0986,0.0987,0.0989,0,0,0,0,0,0.0567,0.0593,0.0601,0.0613,0.0681,0.0726,0.0735,0.0761,0.0759,0.0773,0.08,0.081,0.0895,0.0883,0.0894,0.091,0.0993,0.0995,0.0997,0.0985,0.0987,0.0989,0,0,0,0,0,0,0.0544,0.0599,0.0609,0.065,0.0684,0.073,0.0749,0.0761,0.0795,0.0795,0.0825,0.0835,0.0875,0.0896,0.0882,0.0948,0.0945,0.0949,0.0932,0.0934,0.0935,0.0929,0.0892,0,0,0,0,0,0.0544,0.0577,0.0623,0.0655,0.0672,0.0707,0.0728,0.0745,0.0781,0.0795,0.0825,0.0858,0.0893,0.0915,0.0949,0.099,0.1001,0.1006,0.1008,0.1008,0.1011,0.1037,0.104,0.1004,0.1004,0.1004,0,0,0.0544,0.0578,0.0596,0.0651,0.0679,0.0713,0.0719,0.0753,0.0778,0.0799,0.0841,0.0865,0.0904,0.0946,0.0966,0.0966,0.1024,0.1011,0.1011,0.1014,0.1039,0.1043,0.1046,0.1005,0.1005,0.1005,0,0,0.0561,0.0589,0.062,0.0649,0.0692,0.0716,0.0724,0.077,0.0787,0.083,0.0847,0.0877,0.0936,0.0964,0.0986,0.1017,0.1028,0.1027,0.1034,0.1058,0.1061,0.1064,0.1076,0.108,0.103,0.103,0.103,0,0.0554,0.0605,0.0634,0.0669,0.0693,0.0716,0.0748,0.0774,0.0826,0.0842,0.0841,0.0917,0.0945,0.0995,0.1003,0.102,0.103,0.1022,0.1058,0.1061,0.1064,0.1076,0.1081,0.103,0.103,0.103,0.103,0,0.0597,0.0632,0.0652,0.0703,0.073,0.0763,0.0797,0.0821,0.0837,0.0861,0.0906,0.0941,0.0984,0.0997,0.1012,0.105,0.1049,0.1053,0.105,0.1067,0.1079,0.1084,0.103,0.103,0.103,0.103,0,0,0.0598,0.0668,0.0675,0.0699,0.075,0.0778,0.0813,0.0856,0.0876,0.0912,0.0942,0.0993,0.0998,0.1023,0.1042,0.1064,0.1088,0.1065,0.1067,0.1069,0.1134,0.1131,0.1136,0.1096,0.1097,0.1098,0.1131,0,0.0622,0.0686,0.0715,0.0766,0.08,0.0824,0.0855,0.0889,0.0914,0.0947,0.0974,0.101,0.1013,0.1029,0.1051,0.108,0.1102,0.1078,0.1125,0.1126,0.1114,0.1142,0.1138,0.1167,0.1136,0.1137,0.1137,0,0.0657,0.0695,0.075,0.08,0.0815,0.0842,0.0885,0.0916,0.0957,0.0973,0.1003,0.1022,0.106,0.1056,0.111,0.1093,0.1114,0.1132,0.1134,0.1139,0.1132,0.1148,0.1177,0.1182,0.1145,0.1144,0.1144,0,0.0654,0.0719,0.0761,0.0781,0.0839,0.0858,0.0883,0.0924,0.0949,0.0987,0.1004,0.1045,0.1067,0.1099,0.1129,0.1123,0.1181,0.1178,0.1196,0.1195,0.1206,0.1205,0.124,0.122,0.122,0.122,0.122,0,0.0678,0.071,0.0761,0.0786,0.0825,0.0858,0.0895,0.0922,0.0958,0.099,0.1013,0.1042,0.108,0.1114,0.1137,0.1179,0.1189,0.1204,0.121,0.1202,0.12,0.1216,0.1215,0.1221,0.1221,0.122,0.122,0,0.068,0.0715,0.0763,0.0815,0.0829,0.0855,0.09,0.0927,0.0954,0.0994,0.1005,0.1047,0.1089,0.1123,0.1176,0.1193,0.1237,0.1243,0.1224,0.1227,0.1243,0.1241,0.1289,0.1297,0.1271,0.1271,0.1271,0,0.0692,0.0719,0.0775,0.0799,0.0824,0.0861,0.0888,0.0923,0.095,0.1,0.102,0.1064,0.1101,0.1167,0.1203,0.1245,0.1252,0.1266,0.1259,0.1251,0.1254,0.1252,0.1255,0.1267,0.1267,0.1267,0.1267,0,0.0711,0.0728,0.0766,0.0811,0.0842,0.0879,0.0916,0.0934,0.0975,0.1005,0.1049,0.1078,0.1135,0.1178,0.1225,0.1251,0.1266,0.127,0.1276,0.1268,0.1256,0.1264,0.1226,0.1268,0.1268,0.1268,0.1268,0.1268,0.0719,0.0745,0.0789,0.0831,0.0864,0.0899,0.0927,0.0959,0.0996,0.1046,0.1065,0.111,0.1153,0.1217,0.1244,0.128,0.1281,0.129,0.1293,0.1294,0.1294,0.1251,0.1289,0.1289,0.1289,0.1289,0.1289,0,0.074,0.077,0.0809,0.0861,0.0895,0.0909,0.0951,0.0979,0.1019,0.1058,0.1095,0.1147,0.119,0.123,0.1276,0.1297,0.1306,0.1308,0.1307,0.1313,0.129,0.128,0.1301,0.1301,0.1301,0.1301,0.1301,0.1301,0.0754,0.0799,0.0821,0.0883,0.0913,0.0959,0.0983,0.1016,0.1047,0.1105,0.1141,0.1168,0.1208,0.1257,0.1298,0.1309,0.1325,0.1325,0.1338,0.1316,0.1314,0.1312,0.1303,0.1328,0.1328,0.1358,0.1358,0.1358]}]]